TimeEDT,TemperatureF,Dew PointF,Humidity,Sea Level PressureIn,VisibilityMPH,Wind Direction,Wind SpeedMPH,Gust SpeedMPH,PrecipitationIn,Events,Conditions,WindDirDegrees,DateUTC
12:54 AM,73.0,69.1,87,30.11,10.0,ESE,5.8,-,N/A,,Clear,110,2013-06-10 04:54:00
1:54 AM,72.0,70.0,93,30.09,10.0,SE,12.7,-,N/A,,Mostly Cloudy,140,2013-06-10 05:54:00
2:54 AM,71.1,70.0,96,30.08,6.0,SE,11.5,-,N/A,,Overcast,140,2013-06-10 06:54:00
3:03 AM,71.1,71.1,100,30.07,5.0,SE,12.7,-,N/A,,Overcast,130,2013-06-10 07:03:00
3:26 AM,71.1,71.1,100,30.07,1.8,SE,8.1,-,N/A,,Overcast,140,2013-06-10 07:26:00
3:54 AM,71.1,71.1,100,30.07,0.8,SE,6.9,-,0.02,Rain,Rain,130,2013-06-10 07:54:00
4:01 AM,72.0,72.0,100,30.05,1.2,SE,8.1,-,0.02,Rain,Rain,130,2013-06-10 08:01:00
4:20 AM,72.0,72.0,100,30.06,0.5,SE,3.5,-,0.43,Fog-Rain,Heavy Rain,140,2013-06-10 08:20:00
4:24 AM,71.1,71.1,100,30.06,1.0,Variable,5.8,-,0.45,Rain,Heavy Rain,0,2013-06-10 08:24:00
4:28 AM,71.1,71.1,100,30.07,2.0,Variable,3.5,-,0.46,Rain,Light Rain,0,2013-06-10 08:28:00
4:35 AM,72.0,72.0,100,30.08,4.0,SE,5.8,-,0.47,Rain,Light Rain,140,2013-06-10 08:35:00
4:54 AM,72.0,71.1,97,30.07,6.0,Calm,Calm,-,0.50,Rain,Light Rain,0,2013-06-10 08:54:00
5:04 AM,72.0,71.1,97,30.06,5.0,East,6.9,-,0.03,Rain,Rain,100,2013-06-10 09:04:00
5:54 AM,72.0,70.0,93,30.07,10.0,SE,11.5,-,0.04,Rain,Light Rain,130,2013-06-10 09:54:00
6:17 AM,71.1,71.1,100,30.05,9.0,Calm,Calm,-,0.00,Rain,Light Rain,0,2013-06-10 10:17:00
6:54 AM,72.0,71.1,97,30.06,8.0,SE,3.5,-,0.00,Rain,Light Rain,130,2013-06-10 10:54:00
7:25 AM,71.1,71.1,100,30.05,8.0,SSE,9.2,-,0.00,,Mostly Cloudy,150,2013-06-10 11:25:00
7:54 AM,72.0,71.1,97,30.06,10.0,South,8.1,-,0.00,,Mostly Cloudy,170,2013-06-10 11:54:00
8:54 AM,73.0,71.1,93,30.05,9.0,SSE,5.8,-,0.01,Rain,Light Rain,150,2013-06-10 12:54:00
9:35 AM,73.9,71.1,91,30.04,10.0,South,9.2,-,0.00,,Overcast,180,2013-06-10 13:35:00
9:54 AM,73.9,71.1,91,30.04,10.0,South,10.4,-,0.00,,Overcast,170,2013-06-10 13:54:00
10:08 AM,75.0,73.0,94,30.03,10.0,South,6.9,-,N/A,,Overcast,170,2013-06-10 14:08:00
10:44 AM,75.0,72.0,90,30.02,8.0,South,12.7,-,N/A,,Mostly Cloudy,170,2013-06-10 14:44:00
10:54 AM,75.0,73.0,94,30.02,7.0,SSE,10.4,-,0.00,Rain,Light Rain,160,2013-06-10 14:54:00
11:54 AM,75.9,73.0,91,30.01,8.0,SSE,9.2,-,0.01,,Overcast,150,2013-06-10 15:54:00
12:14 PM,75.9,73.9,94,29.99,5.0,SSE,9.2,-,0.00,Rain,Light Rain,160,2013-06-10 16:14:00
12:33 PM,75.9,73.9,94,29.98,8.0,SSE,10.4,-,0.00,Rain,Light Rain,150,2013-06-10 16:33:00
12:44 PM,77.0,73.9,90,29.98,10.0,SSE,12.7,-,0.00,,Overcast,160,2013-06-10 16:44:00
12:54 PM,77.0,73.9,90,29.98,10.0,SSE,10.4,-,0.00,,Mostly Cloudy,160,2013-06-10 16:54:00
1:04 PM,78.1,75.0,90,29.96,10.0,South,9.2,18.4,N/A,,Mostly Cloudy,170,2013-06-10 17:04:00
1:36 PM,78.1,73.9,87,29.95,10.0,South,11.5,-,N/A,,Overcast,170,2013-06-10 17:36:00
1:45 PM,77.0,73.9,90,29.94,10.0,SSE,11.5,-,N/A,,Mostly Cloudy,160,2013-06-10 17:45:00
1:54 PM,78.1,73.0,84,29.94,10.0,South,11.5,-,N/A,,Mostly Cloudy,170,2013-06-10 17:54:00
2:03 PM,79.0,75.0,88,29.93,10.0,South,10.4,-,N/A,,Mostly Cloudy,170,2013-06-10 18:03:00
2:54 PM,77.0,73.0,88,29.92,10.0,South,16.1,23.0,0.00,Rain,Light Rain,170,2013-06-10 18:54:00
3:20 PM,75.0,73.9,96,29.90,2.5,South,11.5,19.6,0.06,Rain,Light Rain,170,2013-06-10 19:20:00
3:30 PM,75.0,73.9,96,29.90,8.0,South,12.7,-,0.07,Rain,Light Rain,170,2013-06-10 19:30:00
3:43 PM,75.0,73.9,96,29.90,10.0,South,16.1,23.0,0.07,Rain,Light Rain,170,2013-06-10 19:43:00
3:54 PM,75.0,73.9,96,29.90,8.0,SSE,16.1,25.3,0.07,Rain,Light Rain,160,2013-06-10 19:54:00
4:22 PM,75.0,73.9,96,29.87,9.0,SSE,12.7,21.9,0.00,Rain,Light Rain,160,2013-06-10 20:22:00
4:54 PM,75.9,73.9,94,29.86,10.0,South,15.0,-,0.00,,Scattered Clouds,170,2013-06-10 20:54:00
5:54 PM,78.1,73.9,87,29.83,10.0,SSE,16.1,24.2,N/A,,Partly Cloudy,160,2013-06-10 21:54:00
6:54 PM,75.9,73.0,91,29.84,10.0,South,12.7,26.5,N/A,,Mostly Cloudy,170,2013-06-10 22:54:00
7:54 PM,75.0,72.0,90,29.82,10.0,SSE,15.0,-,N/A,,Mostly Cloudy,160,2013-06-10 23:54:00
8:54 PM,73.9,72.0,93,29.83,10.0,SSE,17.3,24.2,0.01,Rain,Light Rain,160,2013-06-11 00:54:00
9:24 PM,73.0,73.0,100,29.81,3.0,South,17.3,32.2,0.16,Rain,Rain,170,2013-06-11 01:24:00
9:54 PM,72.0,72.0,100,29.85,6.0,SSW,8.1,20.7,0.25,Rain,Rain,210,2013-06-11 01:54:00
10:54 PM,71.1,69.1,93,29.85,10.0,Variable,3.5,-,0.13,,Overcast,0,2013-06-11 02:54:00